Location: Emblem
(62.4273°N, 6.4710°E)
Time: 06:12:16
(UTC+02:00)

Transit 2A - Pass Details

Date: 11 March 2024
Orbit: 596 x 956 km, 66.7° (Epoch: 24 April)

Event Time Altitude Azimuth Distance (km) Brightness Sun altitude
Rises 20:39:14 0° 275° (W) 2,877 10.4 -15.9°
Reaches altitude 10° 20:41:29 10° 281° (W) 1,999 9.4 -16.1°
Maximum altitude 20:45:51 50° 357° (N) 834 6.4 -16.6°
Enters shadow 20:49:17 18° 68° (ENE) 1,672 7.4 -16.9°
